{"data":{"norad_id":50195,"epoch":"2026-05-25T00:22:52.891680Z","epoch_age_seconds":80476,"freshness":"FRESH","line1":"1 50195U 21125AR  26145.01588995  .00001008  00000+0  81408-4 0  9997","line2":"2 50195  53.2155 256.4789 0001255  92.5468 267.5668 15.08837820248254","mean_motion":15.0883782,"eccentricity":0.0001255,"inclination_deg":53.2155,"raan_deg":256.4789,"arg_perigee_deg":92.5468,"mean_anomaly_deg":267.5668,"bstar":8.1408e-5,"rev_number":24825,"period_min":95.437692567913,"perigee_km":538.88185753493,"apogee_km":540.61824718508,"semimajor_km":6917.88705236,"source":"CELESTRAK","updated_at":"2026-05-25T13:38:16.871732Z"}}